Location: Hains Lake
(37.8540°N, 99.8578°W)
Time: 10:49:39
(UTC+00:00)

STARLINK 1007 - Pass Details

Date: 11 December 2019
Orbit: 347 x 352 km, 53.0° (Epoch: 27 January)

Event Time Altitude Azimuth Distance (km) Brightness Sun altitude
Exits shadow 11:24:20 13° 72° (ENE) 1,142 6.0 -26.9°
Drops below altitude 10° 11:24:54 10° 81° (E) 1,307 6.4 -26.8°
Enters shadow 12:20:18 -71° 309° (NW) 12,412 10.4 -16.2°
Maximum altitude 12:57:53 32° 228° (SW) 620 3.7 -9.2°
